Location: Unspecified
(39.0670°S, 0.0000°E)
Time: 23:48:29
(UTC+00:00)

Envisat - Pass Details

Date: 04 July 2019
Orbit: 764 x 766 km, 98.1° (Epoch: 13 October)

Event Time Altitude Azimuth Distance (km) Brightness Sun altitude
Exits shadow 19:02:57 46° 29° (NNE) 1,031 3.4 -25.2°
Drops below altitude 10° 19:06:44 10° 360° (N) 2,304 5.6 -25.9°
Sets 19:09:03 0° 356° (N) 3,221 6.4 -26.3°
